Lapse_Rate
7.6 7.4 7.7 8.1 8.6 8.0 7.8 8.1 8.4 8.1 7.7 7.4 7.3 7.2 6.5 6.5 6.9 6.9 6.5 6.1 5.7 5.6 5.3 5.1 5.1 5.2 5.3 5.4 5.4 5.3 5.0 5.0 5.2 5.2 5.5 5.5 5.8 6.1 6.2 6.4 6.4 6.3 6.3 6.5
7.5 7.2 7.9 8.4 8.6 8.5 8.1 7.8 8.2 8.4 7.9 7.7 7.4 7.2 6.7 6.7 6.3 6.3 6.4 6.2 5.9 5.5 5.6 5.6 5.5 5.3 5.3 5.3 5.5 5.5 5.1 5.2 5.3 5.4 5.6 5.9 6.1 6.3 6.5 6.6 6.6 6.7 6.8 6.9
7.6 7.5 7.9 8.2 8.4 8.4 8.4 8.2 8.1 8.3 8.0 7.5 7.5 7.2 7.1 7.1 6.7 6.6 6.3 6.4 6.2 6.0 5.8 5.9 5.7 5.6 5.3 5.3 5.4 5.4 5.3 5.3 5.4 5.5 5.7 6.1 6.3 6.5 6.5 6.6 6.8 6.8 6.8 7.0
7.5 7.7 8.0 8.1 8.2 8.2 8.6 8.8 8.4 8.2 7.9 7.7 7.8 7.3 7.3 7.3 7.0 6.9 6.4 6.8 6.5 6.2 6.2 6.0 5.9 5.7 5.6 5.4 5.4 5.4 5.5 5.6 5.8 5.9 6.1 6.4 6.6 6.7 6.8 7.0 7.0 7.1 7.2 7.2
7.0 7.4 7.7 7.9 8.2 8.3 8.9 8.9 8.6 8.3 8.0 8.0 8.0 7.4 8.4 7.8 7.5 7.3 7.3 7.2 6.9 6.4 6.4 6.5 6.3 5.9 5.8 5.8 5.7 5.6 5.8 6.0 6.1 6.1 6.5 6.6 6.6 6.7 7.0 7.1 7.2 7.3 7.4 7.3
7.3 7.8 7.7 8.2 8.5 8.7 8.9 8.8 8.3 8.2 7.7 7.2 8.2 8.1 8.9 8.6 8.8 7.9 7.2 7.3 7.1 6.7 6.5 6.6 6.1 5.9 6.0 6.0 5.9 5.9 6.2 6.1 6.1 6.6 6.8 6.6 6.6 6.9 7.0 7.2 7.3 7.4 7.5 7.4
6.9 7.2 7.8 7.9 8.3 8.9 8.6 8.6 8.1 7.0 6.5 6.7 8.0 7.7 8.9 9.2 9.0 8.0 7.5 7.5 7.0 6.8 6.8 6.7 6.6 6.5 6.3 6.4 6.4 6.4 6.3 6.2 6.2 6.6 6.6 6.5 6.8 6.9 7.1 7.4 7.6 7.7 7.7 7.8
6.6 6.7 7.4 7.8 8.3 8.4 8.4 8.6 8.0 6.7 5.9 7.4 7.8 7.7 9.2 9.4 9.1 8.1 7.6 7.2 7.0 7.0 6.7 6.8 6.7 6.6 6.5 6.6 6.6 6.5 6.5 6.4 6.4 6.4 6.5 6.7 6.9 6.9 7.3 7.5 7.8 7.9 7.8 7.8
6.5 7.0 7.5 7.8 8.2 8.4 8.4 8.3 8.2 8.1 7.3 7.3 7.9 8.4 9.0 9.4 9.0 8.0 7.9 7.3 7.1 7.2 7.1 6.8 6.7 6.6 6.6 6.6 6.6 6.7 6.5 6.4 6.4 6.3 6.4 6.8 7.0 7.2 7.5 7.6 7.9 7.8 7.8 8.0
7.3 7.0 7.4 7.9 8.0 8.3 8.4 8.4 8.0 7.9 7.1 6.8 7.4 8.1 8.7 9.2 9.1 8.1 7.9 7.8 7.3 7.4 7.1 6.8 6.7 6.7 6.8 6.7 6.6 6.5 6.4 6.3 6.2 6.3 6.8 7.1 7.4 7.8 7.9 8.0 8.0 8.0 7.9 8.1
7.2 7.3 7.7 7.8 7.9 7.9 7.9 8.4 8.2 8.3 8.2 6.2 5.7 7.5 8.9 9.1 9.3 8.9 8.4 8.1 7.9 7.9 7.5 7.2 7.0 6.9 6.9 6.8 6.6 6.6 6.5 6.4 6.4 6.7 7.1 7.5 7.8 8.1 8.2 8.1 8.1 8.1 8.0 8.1
6.9 7.1 7.4 7.5 8.0 8.1 8.4 8.2 8.2 8.3 7.5 7.7 7.4 8.0 8.9 9.3 9.2 9.3 9.1 8.8 8.2 8.0 7.8 7.6 7.5 7.3 7.2 7.1 7.0 6.9 6.7 6.6 6.7 6.9 7.3 7.7 8.0 8.4 8.5 8.4 8.3 8.2 8.1 8.0
6.9 6.9 7.1 7.4 8.0 8.2 7.8 8.1 8.3 8.3 8.3 7.9 7.0 8.2 9.1 9.3 9.3 9.2 9.2 9.2 9.0 8.4 8.1 7.8 7.6 7.6 7.5 7.3 7.4 7.2 7.0 6.9 6.9 7.2 7.5 7.9 8.3 8.6 8.7 8.6 8.4 8.3 8.1 8.0
6.7 6.4 6.7 6.7 7.1 7.6 7.7 7.7 8.0 8.1 7.9 7.7 7.4 8.5 8.9 9.3 9.4 9.3 9.3 9.3 9.3 9.1 8.6 8.2 7.9 7.9 7.8 7.7 7.6 7.4 7.2 7.1 7.2 7.5 7.9 8.5 8.7 8.8 8.8 8.6 8.4 8.2 8.0 7.9
6.1 6.4 6.6 6.8 7.6 8.0 8.1 8.0 8.1 8.0 7.8 7.7 7.6 8.3 9.0 9.1 9.3 9.4 9.3 9.4 9.3 9.1 9.0 8.5 8.3 8.1 8.1 8.2 7.9 7.7 7.4 7.4 7.6 8.1 8.4 8.6 8.7 8.8 8.8 8.7 8.2 8.1 7.9 7.9
5.4 6.3 6.6 6.7 7.1 7.7 8.0 8.2 8.4 8.4 8.3 8.3 7.9 8.1 8.5 9.3 9.1 9.1 9.2 9.3 9.3 9.4 9.2 8.9 8.6 8.6 8.4 8.2 8.3 8.2 8.1 8.1 8.1 8.3 8.5 8.6 8.7 8.7 8.7 8.5 8.2 7.8 7.7 7.8
5.2 5.8 6.4 6.3 7.0 7.4 7.3 7.5 8.0 8.2 8.3 8.3 7.9 7.8 8.7 8.6 9.1 9.0 9.0 9.1 9.2 9.5 9.3 9.1 8.8 8.8 8.8 8.4 8.4 8.4 8.3 8.4 8.4 8.6 8.6 8.5 8.5 8.5 8.4 8.2 8.0 7.7 7.6 7.6
4.5 4.9 5.0 6.2 6.9 6.4 6.3 7.5 7.4 8.0 8.4 8.5 8.1 8.0 8.5 8.8 8.9 9.2 9.1 9.1 9.2 9.5 9.4 9.3 9.1 8.9 8.9 8.7 8.7 8.6 8.5 8.4 8.1 8.2 8.4 8.1 8.1 8.5 8.4 8.2 7.9 7.6 7.4 7.6
4.8 4.8 4.9 5.8 6.5 6.8 6.6 7.2 7.5 7.3 7.6 8.2 8.1 8.3 8.4 8.9 8.9 8.8 9.1 9.2 9.2 9.5 9.5 9.4 9.5 9.4 9.1 8.8 8.7 8.8 8.9 8.8 8.6 8.4 8.4 8.3 8.2 8.4 8.4 8.2 7.8 7.5 7.3 7.5
6.1 5.6 5.1 5.5 6.2 5.5 6.5 7.0 7.6 8.1 7.6 8.3 8.0 8.2 8.4 8.9 8.9 8.8 9.1 9.3 9.2 9.5 9.5 9.6 9.5 9.2 9.1 9.1 8.9 9.0 8.9 8.9 8.8 8.7 8.7 8.5 8.5 8.4 8.3 8.1 7.8 7.4 7.3 7.4
7.0 5.9 5.2 5.3 4.8 6.5 6.7 7.3 7.7 7.7 6.7 8.0 7.9 8.2 8.5 8.6 8.9 9.1 9.2 9.1 9.4 9.3 9.5 9.4 9.2 9.0 9.2 9.0 8.9 8.7 8.6 8.8 8.8 8.7 8.8 8.7 8.4 8.2 8.2 7.9 7.6 7.5 7.6 7.4
7.4 7.0 5.8 5.4 5.1 5.4 6.9 7.3 7.4 7.3 7.5 7.9 8.3 8.4 8.5 8.3 8.5 9.0 9.2 9.2 9.3 9.5 9.1 9.4 9.3 9.3 9.3 9.0 8.7 8.6 8.9 9.0 8.8 8.8 8.6 8.4 8.2 7.7 7.7 7.8 7.7 7.9 7.8 7.4
7.1 6.6 6.9 6.5 6.2 7.0 7.5 7.5 7.7 7.6 7.9 7.8 8.5 8.8 8.8 8.6 8.7 8.9 9.2 9.4 9.2 9.7 9.6 9.6 9.6 9.4 9.1 9.1 8.9 9.0 9.0 8.9 8.7 8.6 8.6 8.2 7.9 7.7 7.7 7.9 8.2 8.3 7.9 7.4
6.9 6.3 6.6 6.8 7.0 7.2 8.5 8.2 8.2 8.1 8.1 8.4 8.8 8.8 8.8 8.6 8.9 9.1 9.2 9.4 9.5 9.5 9.6 9.6 9.7 9.5 9.3 9.3 9.2 9.0 8.7 8.6 8.6 8.7 8.6 8.5 8.0 7.6 7.6 7.9 8.2 8.2 7.6 7.3
6.3 6.2 6.8 7.1 7.4 7.8 8.5 8.7 8.1 8.4 8.6 8.8 8.8 8.8 8.9 8.7 8.9 9.0 9.3 9.3 9.4 9.5 9.5 9.5 9.6 9.6 9.4 9.2 9.0 8.9 8.7 8.7 8.6 8.8 8.7 8.7 8.6 8.3 8.1 7.9 8.0 7.7 7.4 7.3
6.1 5.6 6.2 5.9 6.7 7.9 8.5 8.6 8.3 8.3 8.4 8.7 8.9 9.0 9.0 8.9 8.8 9.0 9.1 9.4 9.5 9.5 9.5 9.6 9.7 9.5 9.1 9.0 8.9 8.9 8.9 8.7 8.8 8.7 8.7 8.5 8.4 8.4 8.3 8.1 7.9 7.5 7.3 7.2
Wind_Speed
4 4 6 10 8 5 6 3 6 3 6 5 7 5 13 13 9 8 7 10 10 11 11 11 12 12 10 8 8 8 7 7 3 1 2 3 4 2 2 4 5 6 10 8
4 7 10 3 6 5 5 3 3 1 3 3 5 2 8 13 14 13 12 8 10 7 7 11 11 11 11 11 11 8 8 7 5 3 3 3 1 2 3 5 6 6 10 9
9 8 8 7 5 5 4 6 5 2 4 3 6 3 5 8 10 11 11 11 9 11 10 11 11 12 10 11 11 11 10 8 7 7 2 1 1 1 2 1 2 4 10 10
5 4 8 6 6 7 4 8 6 8 4 3 3 4 5 8 15 15 14 14 13 12 11 11 13 11 12 12 9 10 10 9 7 8 5 6 4 3 3 2 1 4 8 11
9 9 8 7 8 9 9 7 8 4 2 4 0 1 6 8 9 18 17 17 16 15 14 14 14 14 12 10 10 10 9 9 9 8 8 7 5 3 2 1 3 4 5 7
8 4 9 9 5 14 6 7 7 5 4 1 7 6 5 6 11 16 15 17 17 16 15 13 13 12 11 11 10 10 10 11 9 9 9 9 8 6 3 3 3 3 2 3
1 4 3 5 5 5 6 7 1 1 1 5 3 2 11 7 8 13 20 17 17 15 14 13 13 13 12 13 13 11 12 13 10 10 9 11 10 7 7 5 3 4 2 2
7 6 9 5 11 9 8 9 6 6 4 3 4 6 7 6 8 13 15 18 16 15 14 15 15 15 14 15 14 14 13 14 10 11 11 9 8 6 5 5 3 3 2 3
7 6 3 6 4 14 5 6 8 7 2 3 3 8 10 1 6 11 11 11 15 17 16 16 15 15 15 15 16 16 14 12 11 12 9 8 7 7 6 6 4 3 3 3
8 3 5 9 4 3 9 9 4 2 3 2 5 5 6 4 8 10 10 14 15 15 14 13 14 15 14 15 14 14 13 14 12 11 10 8 8 8 7 5 6 5 4 3
7 3 4 7 10 9 4 5 6 6 4 6 1 6 8 6 10 15 15 14 16 16 15 14 13 13 14 12 11 13 13 13 12 11 10 9 8 8 7 7 5 5 3 4
6 5 4 11 1 6 7 8 7 6 4 2 4 7 3 8 8 10 12 14 13 14 14 13 13 12 11 12 12 14 13 13 13 10 8 8 7 7 8 7 6 6 5 7
3 4 2 2 4 3 16 6 6 7 4 8 6 7 4 4 8 8 8 8 13 12 10 10 9 12 13 13 13 14 13 14 11 9 10 9 9 9 9 7 7 6 9 9
3 3 11 8 6 6 6 11 8 8 5 6 7 7 5 3 8 8 9 9 9 13 15 14 12 12 13 13 13 13 12 10 9 11 11 11 11 11 8 7 7 8 9 10
4 6 7 12 4 3 7 10 10 16 8 12 11 9 10 11 10 11 15 10 10 12 13 15 15 14 13 12 12 11 10 11 12 12 12 13 10 7 8 8 9 10 10 9
8 4 6 10 15 15 5 5 17 14 6 6 6 9 10 5 5 6 10 10 15 18 21 19 17 14 14 16 15 11 10 12 13 13 12 9 9 9 10 10 11 11 10 10
4 4 6 14 7 4 12 22 8 6 5 11 12 12 5 6 10 11 11 13 18 20 20 19 18 18 17 17 16 16 12 12 14 14 13 12 11 11 11 12 12 12 11 10
4 3 2 3 7 15 13 11 16 11 7 9 4 9 9 10 10 8 8 12 15 17 14 16 16 15 15 12 12 9 13 14 14 13 13 13 13 13 13 13 13 12 10 10
16 5 3 3 6 5 4 4 13 10 16 10 10 9 8 4 4 6 8 10 16 17 17 18 18 18 10 13 13 14 14 14 14 15 15 15 15 15 15 14 14 12 11 9
16 10 5 2 6 12 8 6 7 5 17 11 12 12 9 6 2 8 7 8 11 11 9 10 10 6 9 9 13 14 13 14 15 15 14 13 14 16 16 15 15 13 11 10
6 4 11 10 4 7 6 6 7 13 8 9 11 12 9 7 9 14 7 9 8 8 10 9 11 12 9 12 14 14 14 15 11 12 12 13 13 14 14 14 13 12 12 10
7 8 5 4 5 9 6 5 16 11 5 7 9 8 8 11 11 11 8 7 8 9 11 11 11 9 10 13 14 12 12 10 13 13 13 13 13 11 11 15 12 13 12 11
1 4 3 8 7 8 6 10 11 7 8 7 9 8 11 10 10 11 10 9 10 12 9 8 11 12 9 11 12 14 13 14 14 14 14 12 12 11 12 14 13 10 11 10
4 3 1 6 4 12 10 4 6 7 11 9 9 9 11 9 10 10 6 7 8 9 11 10 13 12 13 10 10 13 15 14 15 15 14 13 13 11 9 8 8 10 9 9
3 8 7 6 7 19 3 7 13 16 11 6 7 10 11 9 7 7 7 8 7 6 8 11 12 12 13 13 13 15 16 16 15 14 14 12 10 11 10 7 4 6 5 8
2 4 5 3 15 12 14 13 14 14 10 11 10 6 4 8 9 7 7 9 11 11 10 10 11 13 13 14 14 13 15 17 18 15 11 11 10 9 8 8 6 15 7 7
Wind_Direction
167 118 189 210 188 163 164 200 177 204 178 138 198 170 183 190 210 192 192 196 202 204 200 187 194 190 189 192 189 202 198 215 162 155 213 255 247 284 305 308 325 334 344 2
75 195 211 128 154 146 145 147 254 316 153 123 163 244 181 196 210 201 202 201 206 199 185 189 190 188 188 195 205 200 205 207 198 177 200 207 222 259 260 289 300 324 332 344
165 208 152 163 173 162 159 185 177 193 148 60 133 315 195 214 214 211 215 213 204 199 194 192 192 192 186 194 198 203 205 203 205 201 174 240 339 332 321 301 312 337 339 335
188 209 159 166 196 141 211 200 143 133 116 205 160 271 241 202 207 220 213 207 209 200 195 192 195 194 194 199 191 200 200 201 205 189 191 200 202 216 227 216 275 313 332 333
216 172 171 185 188 161 225 149 160 132 126 97 273 22 261 167 208 220 215 210 205 203 197 195 196 198 199 191 191 197 200 207 205 194 198 205 218 221 240 265 298 308 318 329
194 187 170 195 169 184 134 84 52 49 82 291 215 169 260 184 210 203 217 210 201 201 198 194 196 194 196 195 193 193 198 215 206 199 199 202 212 213 225 249 265 288 312 321
147 211 219 156 139 149 106 94 8 314 334 222 283 152 245 235 216 192 198 204 200 196 195 191 185 190 193 195 196 197 199 217 210 203 204 209 216 205 217 230 238 271 303 311
155 205 191 208 191 156 173 152 160 189 189 255 99 231 251 247 187 175 188 190 189 190 194 193 191 192 196 197 197 199 202 214 201 202 212 210 207 204 211 210 214 234 242 262
150 245 274 190 177 158 182 154 180 98 7 62 245 289 296 91 137 156 165 154 189 194 190 193 192 194 196 196 199 201 203 206 203 208 208 208 197 200 199 200 204 216 218 233
198 167 212 191 133 154 167 151 94 1 137 203 280 280 248 307 190 173 160 174 192 195 190 190 192 195 197 200 199 199 203 202 206 204 202 203 197 197 198 183 206 206 231 236
145 110 262 115 197 179 129 136 54 115 126 169 219 262 216 229 198 180 185 183 185 189 189 189 193 197 200 198 193 200 199 197 203 203 199 196 193 190 192 199 200 195 196 146
196 138 195 198 163 212 161 165 141 131 217 169 152 270 244 230 190 173 188 181 185 188 188 187 189 188 188 197 196 200 201 202 208 196 184 188 170 181 195 200 184 179 148 114
311 194 106 67 20 350 201 188 127 110 96 185 148 265 343 165 153 178 186 195 184 176 168 173 173 187 192 196 200 206 203 206 198 170 171 169 183 190 202 188 175 152 131 124
207 198 184 192 210 144 169 181 175 146 144 170 209 252 292 227 174 178 201 195 195 182 181 187 186 191 196 200 199 203 203 190 169 166 173 181 191 200 186 168 155 138 129 126
59 218 184 202 212 158 172 176 170 194 178 187 225 202 235 227 205 204 201 192 174 197 193 192 192 195 196 199 201 197 189 169 161 168 176 194 196 170 150 142 130 122 122 123
352 301 202 207 219 239 259 222 185 196 166 187 203 239 221 215 190 191 215 187 198 200 204 198 197 192 194 198 205 194 182 169 165 173 183 182 160 158 149 138 134 127 123 126
305 350 4 223 163 218 252 232 194 184 169 173 206 223 210 188 200 206 210 198 202 203 202 197 196 194 200 202 197 198 172 159 173 175 177 173 164 158 149 142 137 136 137 135
251 41 312 253 107 217 244 212 210 196 204 207 193 219 190 218 224 219 200 193 204 204 201 201 202 200 204 193 188 157 160 168 174 176 174 170 164 156 147 146 141 135 138 140
208 139 270 189 210 270 281 210 182 170 236 195 205 240 243 193 120 274 219 204 205 197 201 198 198 200 179 181 173 161 165 171 172 178 176 172 165 154 151 151 146 142 137 138
183 184 163 322 195 225 201 231 177 116 233 191 186 223 233 121 171 259 214 211 220 202 185 181 178 165 157 165 154 158 167 173 182 179 174 165 160 155 155 152 149 147 142 140
136 154 204 228 283 288 235 178 139 179 224 180 184 211 181 185 200 235 162 219 218 199 180 151 157 173 174 151 155 166 166 181 168 152 150 151 155 154 148 142 142 140 137 136
167 147 179 170 216 250 223 88 184 210 186 188 173 190 177 217 232 239 223 199 182 169 154 154 149 151 151 157 156 158 165 142 139 138 139 145 146 146 145 138 138 137 137 137
193 184 208 184 209 232 212 216 204 190 159 206 166 184 194 210 228 219 210 202 186 180 165 154 152 142 151 160 159 151 147 139 136 136 138 138 138 143 144 141 139 137 142 147
302 45 238 358 348 317 289 273 307 231 203 183 187 178 170 199 225 219 181 176 184 165 163 153 142 147 165 146 142 139 141 142 138 135 136 137 136 134 135 129 143 147 153 152
325 322 332 272 326 334 334 24 350 323 280 197 202 180 192 185 211 198 185 179 165 158 152 154 151 151 159 138 137 146 144 141 138 136 140 139 134 132 122 96 124 158 152 155
349 11 12 317 316 296 270 298 312 313 277 220 188 196 203 192 187 167 190 174 160 155 149 145 137 148 149 137 141 151 151 147 141 140 144 141 135 129 128 127 98 45 65 122